NIEUW!!! Volg onze weer- en natuurfoto's op Instagram @ weerstationmaaseik.be

WS Maaseik 1 Meer informatie WS Maaseik 1


WS Maaseik 2 Meer informatie WS Maaseik 2


Regen radar Meer informatie rain snow radar


Bezoek onze andere website:

Vorige versie
weerstation Maaseik


Bezoek ook eens deze sites:

Weerstation Geleen

Weerstation Luyksgestel



Het weer levert geen direct gevaar op.    Er zijn geen waarschuwingen afgegeven.

15 daagse weersverwachting Santander (ES)

  • Overzicht
  • Per uur
  • 15 dagen
  • Extra
  • Vergelijk
  • Kaarten
  • Dagkaart
  • Meer »
  • Info
  • Statistieken
  • Directe link
    Temp 6h Neerslag Wind  
 08:09     17:51    Daglengte: 9:42 Morgen
01:00
11°
9.7 mm
13
07:00
10°
18.7 mm
13
13:00
12°
 
4
19:00
31.2 mm
8
 08:10     17:50    Daglengte: 9:40 Vrijdag 15 Nov
01:00
10°
35.7 mm
12
07:00
10°
41.4 mm
8
warningclass
13:00
10°
46.5 mm
11
warningclass
19:00
52.3 mm
7
warningclass
 08:11     17:49    Daglengte: 9:38 Zaterdag 16 Nov
01:00
52.0 mm
6
07:00
53.5 mm
7
13:00
11°
93.2 mm
9
Locatie info
Region: Cantabria
Latitude: 43.4616°N
Longitude: -3.8101°E
28 masl
Postcode: 39008
Temp/Neerslag /Baro Onweer/Dauwpunt
    Temp Baro 1h Neerslag Dauwpunt Wind UV Bewolking  
 08:07     17:52    Daglengte: 9:45 Vandaag
20:00
12°
1007.6 hPa
48%
9.6°
7
Windvlaag: 1.9 m/s
80%
21:00
12°
1006.0 hPa
29%
8.6°
6
Windvlaag: 3.5 m/s
87%
22:00
12°
1005.1 hPa 0.8 mm
82%
7.7°
6
Windvlaag: 2.8 m/s
76%
23:00
12°
1004.7 hPa 1.6 mm
82%
8.0°
8
Windvlaag: 2.6 m/s
90%
 08:09     17:51    Daglengte: 9:42 Morgen
00:00
11°
1004.7 hPa 3.1 mm
82%
8.6°
13
Windvlaag: 0.8 m/s
91%
01:00
11°
1004.7 hPa 4.2 mm
82%
7.2°
13
Windvlaag: 0.4 m/s
91%
02:00
10°
1004.8 hPa 4.5 mm
82%
7.3°
12
Windvlaag: -0.9 m/s
91%
03:00
10°
Voelt als: 5.6°
1004.2 hPa 3.8 mm
82%
7.0°
11
Windvlaag: -1.2 m/s
91%
04:00
10°
Voelt als: 5.6°
1003.3 hPa 3.1 mm
82%
6.8°
12
Windvlaag: 1.1 m/s
89%
05:00
10°
Voelt als: 5.5°
1002.6 hPa 2.8 mm
78%
6.0°
12
Windvlaag: 0.5 m/s
81%
06:00
10°
Voelt als: 5.8°
1002.1 hPa 2.2 mm
76%
5.2°
12
Windvlaag: 0.5 m/s
80%
07:00
10°
1001.7 hPa 2.3 mm
75%
5.0°
13
Windvlaag: 1.8 m/s
85%
08:00
10°
Voelt als: 5.7°
1001.1 hPa
69%
4.7°
11
Windvlaag: 1.2 m/s
77%
09:00
10°
Voelt als: 6.2°
1000.7 hPa
67%
5.0°
9
Windvlaag: 1.4 m/s
75%
10:00
10°
1000.1 hPa
67%
4.8°
6
Windvlaag: 1 m/s
47%
11:00
11°
999.1 hPa
31%
2.9°
5
Windvlaag: 0.6 m/s
71%
12:00
12°
998.0 hPa
29%
2.7°
5
Windvlaag: 3.4 m/s
80%
13:00
12°
996.8 hPa
24%
2.0°
4
Windvlaag: 2.8 m/s
86%
14:00
12°
996.3 hPa 4.4 mm
25%
3.0°
6
Windvlaag: 1.9 m/s
90%
15:00
11°
996.1 hPa 5.1 mm
39%
4.1°
5
Windvlaag: 1.9 m/s
84%
16:00
10°
Voelt als: 7.1°
996.5 hPa 4.8 mm
82%
5.0°
5
Windvlaag: 0.7 m/s
87%
17:00
10°
Voelt als: 6.7°
997.1 hPa 5.2 mm
82%
6.8°
6
Windvlaag: 1.2 m/s
89%
18:00
Voelt als: 6.1°
998.5 hPa 5.6 mm
82%
6.9°
7
Windvlaag: -2.7 m/s
89%
19:00
Voelt als: 6.0°
999.8 hPa 6.1 mm
82%
6.5°
8
Windvlaag: -1.8 m/s
80%
20:00
Voelt als: 6.5°
1000.2 hPa 4.9 mm
82%
6.4°
6
Windvlaag: -1.5 m/s
41%
21:00
10°
Voelt als: 7.1°
1000.2 hPa 7.1 mm
82%
5.6°
6
Windvlaag: 1.8 m/s
57%
22:00
Voelt als: 5.8°
1000.0 hPa 5.3 mm
82%
6.0°
8
Windvlaag: 0.3 m/s
78%
23:00
Voelt als: 5.3°
999.8 hPa 6.1 mm
81%
7.3°
10
Windvlaag: 2.8 m/s
78%
 08:10     17:50    Daglengte: 9:40 Vrijdag 15 Nov
00:00
10°
Voelt als: 5.7°
999.8 hPa 6.2 mm
82%
7.7°
12
Windvlaag: -0.8 m/s
78%
01:00
10°
Voelt als: 5.3°
1000.0 hPa 6.1 mm
82%
7.2°
12
Windvlaag: -0.7 m/s
82%
02:00
10°
Voelt als: 5.5°
1000.0 hPa 6.2 mm
82%
6.9°
12
Windvlaag: -1.5 m/s
89%
03:00
10°
Voelt als: 5.5°
1000.2 hPa 5.9 mm
82%
7.2°
12
Windvlaag: -0.9 m/s
85%
04:00
10°
Voelt als: 5.6°
1000.0 hPa 6.4 mm
82%
7.0°
12
Windvlaag: 0.3 m/s
85%
05:00
10°
Voelt als: 5.8°
1000.0 hPa 7.3 mm
82%
7.3°
11
Windvlaag: -2.4 m/s
84%
06:00
10°
Voelt als: 6.1°
1000.6 hPa 7.9 mm
82%
7.9°
10
Windvlaag: -1.5 m/s
80% warningclass
07:00
10°
Voelt als: 6.2°
1001.8 hPa 7.6 mm
82%
7.8°
8
Windvlaag: -3.2 m/s
81% warningclass
08:00
10°
Voelt als: 6.4°
1002.9 hPa 7.2 mm
82%
7.2°
8
Windvlaag: -3.2 m/s
74% warningclass
09:00
10°
Voelt als: 6.3°
1004.1 hPa 7.4 mm
82%
7.0°
8
Windvlaag: -3.1 m/s
80% warningclass
10:00
10°
Voelt als: 6.3°
1004.9 hPa 7.7 mm
82%
7.3°
8
Windvlaag: -3.9 m/s
86% warningclass
11:00
10°
Voelt als: 6.4°
1005.0 hPa 7.3 mm
82%
7.6°
9
Windvlaag: -3.4 m/s
71% warningclass
12:00
10°
1005.2 hPa 7.1 mm
82%
7.7°
10
Windvlaag: -2.9 m/s
73%
13:00
10°
Voelt als: 5.7°
1004.9 hPa 9.7 mm
82%
7.9°
11
Windvlaag: 1.2 m/s
68% warningclass
14:00
10°
Voelt als: 5.8°
1004.7 hPa 10.0 mm
82%
7.4°
10
Windvlaag: 1.9 m/s
77% warningclass
15:00
10°
1004.5 hPa 7.2 mm
82%
7.8°
10
Windvlaag: 1.9 m/s
84%
16:00
Voelt als: 5.7°
1004.8 hPa 10.8 mm
100%
7.8°
9
Windvlaag: -2.2 m/s
93% warningclass
17:00
Voelt als: 5.5°
1005.2 hPa 7.8 mm
100%
7.3°
8
Windvlaag: -1.6 m/s
94% warningclass
18:00
Voelt als: 5.5°
1005.8 hPa 8.0 mm
100%
7.4°
8
Windvlaag: 0 m/s
88% warningclass
19:00
Voelt als: 5.5°
1006.3 hPa 8.5 mm
100%
7.4°
7
Windvlaag: 0.2 m/s
96% warningclass
20:00
Voelt als: 5.1°
1007.0 hPa 8.6 mm
100%
6.6°
8
Windvlaag: 0.1 m/s
90% warningclass
21:00
Voelt als: 5.4°
1007.7 hPa 8.5 mm
100%
6.2°
7
Windvlaag: 0.1 m/s
86% warningclass
22:00
Voelt als: 5.1°
1008.4 hPa 8.6 mm
100%
6.4°
7
Windvlaag: 1.4 m/s
89%
23:00
Voelt als: 5.1°
1008.9 hPa 8.5 mm
100%
6.4°
7
Windvlaag: 3.1 m/s
87%
 08:11     17:49    Daglengte: 9:38 Zaterdag 16 Nov
00:00
Voelt als: 5.7°
1010.0 hPa 9.2 mm
100%
6.1°
5
Windvlaag: 3.6 m/s
88%
01:00
Voelt als: 5.9°
1010.1 hPa 8.6 mm
100%
6.5°
6
Windvlaag: -0.7 m/s
81%
02:00
Voelt als: 6.2°
1010.4 hPa 8.7 mm
100%
6.9°
5
Windvlaag: -0.2 m/s
66%
03:00
Voelt als: 6.3°
1010.9 hPa 9.1 mm
100%
7.3°
5
Windvlaag: 0.1 m/s
81%
04:00
Voelt als: 6.3°
1011.0 hPa 8.8 mm
100%
7.0°
5
Windvlaag: 1.6 m/s
92%
05:00
Voelt als: 6.2°
1011.2 hPa 9.0 mm
100%
7.3°
6
Windvlaag: 0.5 m/s
93%
06:00
Voelt als: 6.4°
1011.3 hPa 9.1 mm
100%
7.1°
6
Windvlaag: -1 m/s
94%
07:00
Voelt als: 6.4°
1011.9 hPa 8.9 mm
100%
7.1°
7
Windvlaag: -1.6 m/s
94%
08:00
10°
Voelt als: 6.2°
1012.2 hPa 19.9 mm
100%
7.3°
7
Windvlaag: -3 m/s
96%
09:00
10°
Voelt als: 6.7°
1012.6 hPa 20.3 mm
100%
7.6°
7
Windvlaag: -3 m/s
97%
10:00
10°
1012.8 hPa 13.0 mm
100%
7.8°
6
Windvlaag: -1.6 m/s
93%
11:00
10°
1013.1 hPa 13.3 mm
100%
8.1°
8
Windvlaag: 0.6 m/s
99%
12:00
11°
1013.3 hPa 13.4 mm
100%
8.1°
8
Windvlaag: 0.1 m/s
92%
13:00
11°
1013.3 hPa 13.4 mm
100%
8.4°
9
Windvlaag: -0.8 m/s
92%
14:00
11°
1013.1 hPa 22.0 mm
100%
8.3°
9
Windvlaag: 12.5 m/s
94%
15:00
10°
1013.1 hPa 22.5 mm
100%
8.4°
9
Windvlaag: 12.4 m/s
93%
16:00
10°
1013.1 hPa 22.8 mm
100%
8.3°
9
Windvlaag: 10.9 m/s
92%
17:00
10°
1013.1 hPa 22.9 mm
100%
8.2°
8
Windvlaag: 10.6 m/s
94%
18:00
10°
1013.2 hPa 22.8 mm
100%
8.0°
8
Windvlaag: 9.5 m/s
88%
19:00
10°
1013.3 hPa 22.7 mm
100%
8.1°
7
Windvlaag: 1.2 m/s
83%
Temp/Neerslag /Baro Onweer/Dauwpunt
    Temp Baro Neerslag Dauwpunt Wind Bewolking  
 08:07     17:52    Daglengte: 9:45 Vandaag
22:00
12°
1005.1 hPa 0.8 mm 7.7°
6
76%
 08:09     17:51    Daglengte: 9:42 Morgen
01:00
11°
1004.7 hPa 8.9 mm 7.2°
13
91%
04:00
10°
Voelt als: 5.6°
1003.3 hPa 11.4 mm 6.8°
12
89%
07:00
10°
1001.7 hPa 7.3 mm 5.0°
13
85%
10:00
10°
1000.1 hPa   4.8°
6
47%
13:00
12°
996.8 hPa   2.0°
4
86%
16:00
10°
Voelt als: 7.1°
996.5 hPa 14.3 mm 5.0°
5
87%
19:00
Voelt als: 6.0°
999.8 hPa 16.9 mm 6.5°
8
80%
22:00
Voelt als: 5.8°
1000.0 hPa 17.3 mm 6.0°
8
78%
 08:10     17:50    Daglengte: 9:40 Vrijdag 15 Nov
01:00
10°
Voelt als: 5.3°
1000.0 hPa 18.4 mm 7.2°
12
82%
04:00
10°
Voelt als: 5.6°
1000.0 hPa 18.5 mm 7.0°
12
85%
07:00
10°
Voelt als: 6.2°
1001.8 hPa 22.9 mm 7.8°
8
81% warningclass
10:00
10°
Voelt als: 6.3°
1004.9 hPa 22.3 mm 7.3°
8
86% warningclass
13:00
10°
Voelt als: 5.7°
1004.9 hPa 24.2 mm 7.9°
11
68% warningclass
16:00
Voelt als: 5.7°
1004.8 hPa 28.0 mm 7.8°
9
93% warningclass
19:00
Voelt als: 5.5°
1006.3 hPa 24.3 mm 7.4°
7
96% warningclass
22:00
Voelt als: 5.1°
1008.4 hPa 25.7 mm 6.4°
7
89%
 08:11     17:49    Daglengte: 9:38 Zaterdag 16 Nov
01:00
Voelt als: 5.9°
1010.1 hPa 26.3 mm 6.5°
6
81%
04:00
Voelt als: 6.3°
1011.0 hPa 26.6 mm 7.0°
5
92%
07:00
Voelt als: 6.4°
1011.9 hPa 26.9 mm 7.1°
7
94%
10:00
10°
1012.8 hPa 53.2 mm 7.8°
6
93%
13:00
11°
1013.3 hPa 40.1 mm 8.4°
9
92%
16:00
10°
1013.1 hPa 67.4 mm 8.3°
9
92%
19:00
10°
1013.3 hPa 68.4 mm 8.1°
7
83%
22:00
10°
Voelt als: 6.9°
1013.0 hPa 90.0 mm 7.3°
7
91%
 08:13     17:48    Daglengte: 9:35 Zondag 17 Nov
01:00
10°
Voelt als: 7.2°
1012.6 hPa 90.8 mm 6.7°
5
91%
04:00
Voelt als: 6.9°
1011.0 hPa 91.1 mm 6.4°
4
91%
07:00
Voelt als: 6.9°
1009.5 hPa 91.1 mm 6.4°
4
92%
10:00
10°
1009.1 hPa 93.0 mm 7.5°
8
91%
13:00
12°
1008.7 hPa 96.1 mm 8.7°
11
90%
16:00
12°
1009.4 hPa 99.1 mm 8.4°
9
91%
19:00
11°
1010.2 hPa 100.8 mm 7.9°
7
92%
22:00
11°
1011.6 hPa 103.0 mm 8.1°
6
91%
 08:14     17:48    Daglengte: 9:34 Maandag 18 Nov
01:00
11°
1012.8 hPa 105.0 mm 8.1°
6
90%
04:00
10°
1012.8 hPa 108.0 mm 8.3°
8
76%
07:00
10°
1012.7 hPa 110.8 mm 8.4°
10
62%
10:00
11°
1013.1 hPa 113.3 mm 8.0°
9
58%
13:00
12°
1013.2 hPa 115.2 mm 7.6°
9
55%
16:00
12°
1012.9 hPa 115.4 mm 6.8°
8
41%
19:00
11°
1012.8 hPa 115.4 mm 6.1°
7
28%
22:00
Voelt als: 6.7°
1011.8 hPa 115.4 mm 7.2°
5
47%
 08:15     17:47    Daglengte: 9:32 Dinsdag 19 Nov
01:00
Voelt als: 5.5°
1010.8 hPa 115.5 mm 7.9°
3
66%
04:00
Voelt als: 6.7°
1008.7 hPa 115.6 mm 6.6°
5
79%
07:00
11°
1006.8 hPa 115.9 mm 4.7°
6
92%
10:00
11°
1007.4 hPa 116.4 mm 5.5°
6
92%
13:00
11°
1007.8 hPa 116.5 mm 6.4°
6
92%
16:00
11°
1007.3 hPa 116.5 mm 6.0°
5
91%
19:00
11°
1006.8 hPa 116.5 mm 5.8°
5
90%
22:00
11°
1005.3 hPa 116.5 mm 6.1°
5
91%
 08:16     17:46    Daglengte: 9:30 Woensdag 20 Nov
01:00
11°
1003.8 hPa 116.5 mm 6.7°
5
92%
04:00
11°
1002.4 hPa 116.5 mm 6.3°
5
88%
07:00
11°
1001.0 hPa 116.7 mm 6.0°
6
84%
10:00
12°
1000.7 hPa 116.7 mm 6.0°
7
45%
13:00
13°
1000.8 hPa 116.7 mm 5.8°
8
6%
16:00
13°
1001.3 hPa 116.8 mm 5.7°
7
36%
19:00
13°
1001.8 hPa 233.6 mm 5.5°
7
65%
 08:18     17:45    Daglengte: 9:27 Donderdag 21 Nov
01:00
12°
1003.2 hPa 233.8 mm 5.9°
6
3%
07:00
11°
1003.5 hPa 234.2 mm 6.0°
8
92%
13:00
14°
1005.3 hPa 234.5 mm 5.7°
6
0%
19:00
12°
1004.3 hPa 235.4 mm 7.5°
4
92%
 08:19     17:44    Daglengte: 9:25 Vrijdag 22 Nov
01:00
12°
1001.9 hPa 239.2 mm 8.1°
6
92%
07:00
13°
996.8 hPa 240.7 mm 9.6°
7
92%
13:00
15°
996.2 hPa 244.1 mm 9.8°
6
91%
19:00
16°
992.0 hPa 246.4 mm 10.4°
7
91%
 08:20     17:44    Daglengte: 9:24 Zaterdag 23 Nov
01:00
15°
992.7 hPa 247.0 mm 11.2°
4
23%
07:00
11°
1010.6 hPa 248.1 mm 7.1°
3
1%
13:00
11°
1012.3 hPa 252.1 mm 8.6°
5
1%
19:00
10°
Voelt als: 8.6°
1005.4 hPa 0.8 mm 5.8°
2
55%
 08:21     17:43    Daglengte: 9:22 Zondag 24 Nov
01:00
Voelt als: 7.1°
1006.5 hPa 0.7 mm 5.5°
4
55%
07:00
Voelt als: 6.8°
1006.5 hPa 0.5 mm 5.6°
4
53%
13:00
13°
1007.8 hPa 0.7 mm 7.2°
4
47%
19:00
10°
1008.9 hPa 0.8 mm 6.6°
3
40%
 08:23     17:43    Daglengte: 9:20 Maandag 25 Nov
01:00
10°
Voelt als: 7.4°
1010.4 hPa 0.8 mm 5.8°
4
41%
07:00
Voelt als: 6.8°
1011.0 hPa 0.4 mm 5.4°
5
37%
13:00
13°
1011.0 hPa 0.6 mm 7.1°
4
44%
19:00
11°
1010.1 hPa 0.8 mm 7.1°
3
56%
 08:24     17:42    Daglengte: 9:18 Dinsdag 26 Nov
01:00
10°
1009.7 hPa 0.6 mm 6.9°
5
58%
07:00
11°
1008.7 hPa 1.5 mm 7.5°
4
64%
13:00
13°
1009.4 hPa 1.9 mm 9.0°
3
63%
19:00
11°
1010.0 hPa 1.2 mm 8.0°
2
54%
 08:25     17:42    Daglengte: 9:17 Woensdag 27 Nov
01:00
11°
1010.5 hPa 0.5 mm 7.4°
3
53%
07:00
10°
1009.6 hPa 0.7 mm 7.3°
4
66%
13:00
13°
1009.6 hPa 0.9 mm 8.9°
3
71%
19:00
12°
1010.0 hPa 1.1 mm 8.8°
2
66%
 08:26     17:41    Daglengte: 9:15 Donderdag 28 Nov
01:00
11°
1011.2 hPa 0.9 mm 8.2°
3
65%
07:00
11°
1011.1 hPa 0.8 mm 8.0°
4
54%
13:00
14°
1011.1 hPa 1.3 mm 9.2°
4
63%
19:00
12°
1011.0 hPa 1.6 mm 8.9°
3
68%
  CAPE Lifted Index Hail Supercell Tornado SRH 3km CL BTM PRES CL TOP PRES Swiss DWD icon SMHI TS
 08:07     17:52    Daglengte: 9:45 Vandaag
20:00 40 J/kg 3.9 K 0 % 0 % 0 % 0 m²/s² 0 0 7.47 3
21:00 0 J/kg 5.2 K 0 % 0 % 0 % 0 m²/s² 0 0 8.02 3
22:00 0 J/kg 4.7 K 0 % 0 % 0 % 0 m²/s² 0 0 6.77 61
23:00 0 J/kg 4.0 K 0 % 0 % 0 % 0 m²/s² 0 0 4.45 61
 08:09     17:51    Daglengte: 9:42 Morgen
00:00 65 J/kg 2.6 K 0 % 0 % 0 % 0 m²/s² 0 0 2.81 61
01:00 95 J/kg 4.5 K 0 % 0 % 0 % 0 m²/s² 0 0 4.86 63
02:00 140 J/kg 3.3 K 0 % 0 % 0 % 0 m²/s² 0 0 3.69 63
03:00 106 J/kg 2.4 K 0 % 0 % 0 % 0 m²/s² 0 0 2.79 63
04:00 136 J/kg 0.4 K 0 % 0 % 0 % 0 m²/s² 0 0 1.39 61
05:00 0 J/kg 2.1 K 0 % 0 % 0 % 0 m²/s² 0 0 3.84 3
06:00 11 J/kg 0.5 K 0 % 0 % 0 % 0 m²/s² 0 0 1.16 3
07:00 6 J/kg 1.1 K 0 % 0 % 0 % 0 m²/s² 0 0 1.46 3
08:00 0 J/kg -0.6 K 0 % 0 % 0 % 0 m²/s² 0 0 0.51 3
09:00 1 J/kg -1.6 K 0 % 0 % 0 % 0 m²/s² 0 0 1.97 3
10:00 1 J/kg 0.6 K 0 % 0 % 0 % 0 m²/s² 0 0 3.6 2
11:00 44 J/kg 0.6 K 0 % 0 % 0 % 0 m²/s² 0 0 2.61 2
12:00 80 J/kg 0.0 K 0 % 0 % 0 % 0 m²/s² 0 0 0.78 3
13:00 93 J/kg 0.3 K 0 % 0 % 0 % 0 m²/s² 0 0 0.54 3
14:00 58 J/kg 0.2 K 0 % 0 % 0 % 0 m²/s² 0 0 0.71 3
15:00 0 J/kg -0.1 K 0 % 0 % 0 % 0 m²/s² 0 0 3.11 3
16:00 0 J/kg -1.6 K 0 % 0 % 0 % 0 m²/s² 0 0 -0.52 80
17:00 426 J/kg -1.7 K 0 % 0 % 0 % 0 m²/s² 0 0 -1.28 80
18:00 604 J/kg -2.5 K 0 % 0 % 0 % 0 m²/s² 0 0 -1.51 80
19:00 656 J/kg -3.1 K 0 % 0 % 0 % 0 m²/s² 0 0 2.09 63
20:00 483 J/kg -2.2 K 0 % 0 % 0 % 0 m²/s² 0 0 2.96 2
21:00 255 J/kg -0.9 K 0 % 0 % 0 % 0 m²/s² 0 0 1.59 80
22:00 137 J/kg -0.5 K 0 % 0 % 0 % 0 m²/s² 0 0 0.25 3
23:00 508 J/kg -2.1 K 0 % 0 % 0 % 0 m²/s² 0 0 -1.11 3
 08:10     17:50    Daglengte: 9:40 Vrijdag 15 Nov
00:00 627 J/kg -2.6 K 0 % 0 % 0 % 0 m²/s² 0 0 -1.22 80
01:00 683 J/kg -2.6 K 0 % 0 % 0 % 0 m²/s² 0 0 -1.73 80
02:00 574 J/kg -2.2 K 0 % 0 % 0 % 0 m²/s² 0 0 -1.12 80
03:00 595 J/kg -2.4 K 0 % 0 % 0 % 0 m²/s² 0 0 -0.54 80
04:00 645 J/kg -2.7 K 0 % 0 % 0 % 0 m²/s² 0 0 -1.29 80
05:00 580 J/kg -2.6 K 0 % 0 % 0 % 0 m²/s² 0 0 -1.34 80
06:00 733 J/kg -3.1 K 0 % 0 % 0 % 0 m²/s² 0 0 -1.54 95
07:00 415 J/kg -1.7 K 0 % 0 % 0 % 0 m²/s² 0 0 -0.17 95
08:00 463 J/kg -1.8 K 0 % 0 % 0 % 0 m²/s² 0 0 0.06 95
09:00 491 J/kg -2.3 K 0 % 0 % 0 % 0 m²/s² 0 0 -1.7 95
10:00 488 J/kg -2.1 K 0 % 0 % 0 % 0 m²/s² 0 0 -0.3 95
11:00 423 J/kg -1.7 K 0 % 0 % 0 % 0 m²/s² 0 0 -0.2 95
12:00 375 J/kg -1.4 K 0 % 0 % 0 % 0 m²/s² 0 0 0.16 80
13:00 420 J/kg -1.5 K 0 % 0 % 0 % 0 m²/s² 0 0 -1.11 95
14:00 325 J/kg -1.0 K 0 % 0 % 0 % 0 m²/s² 0 0 -0.49 95
15:00 443 J/kg -1.9 K 0 % 0 % 0 % 0 m²/s² 0 0 -0.64 80
16:00 649 J/kg -2.9 K 0 % 0 % 0 % 0 m²/s² 0 0 -2.42 95
17:00 624 J/kg -3.1 K 0 % 0 % 0 % 0 m²/s² 0 0 -2.59 95
18:00 299 J/kg -1.1 K 0 % 0 % 0 % 0 m²/s² 0 0 2.02 95
19:00 595 J/kg -2.5 K 0 % 0 % 0 % 0 m²/s² 0 0 -1.24 95
20:00 387 J/kg -1.6 K 0 % 0 % 0 % 0 m²/s² 0 0 -0.19 95
21:00 366 J/kg -1.3 K 0 % 0 % 0 % 0 m²/s² 0 0 -0.28 95
22:00 479 J/kg -2.6 K 0 % 0 % 0 % 0 m²/s² 0 0 -1.34 80
23:00 527 J/kg -2.4 K 0 % 0 % 0 % 0 m²/s² 0 0 -1.47 80
 08:11     17:49    Daglengte: 9:38 Zaterdag 16 Nov
00:00 464 J/kg -1.9 K 0 % 0 % 0 % 0 m²/s² 0 0 1.13 80
01:00 401 J/kg -1.3 K 0 % 0 % 0 % 0 m²/s² 0 0 1.13 80
02:00 398 J/kg -1.4 K 0 % 0 % 0 % 0 m²/s² 0 0 -0.74 80
03:00 374 J/kg -0.9 K 0 % 0 % 0 % 0 m²/s² 0 0 1.14 80
04:00 276 J/kg -0.2 K 0 % 0 % 0 % 0 m²/s² 0 0 3.07 80
05:00 201 J/kg 0.5 K 0 % 0 % 0 % 0 m²/s² 0 0 1.31 80
06:00 164 J/kg 0.8 K 0 % 0 % 0 % 0 m²/s² 0 0 3.62 80
07:00 170 J/kg 0.8 K 0 % 0 % 0 % 0 m²/s² 0 0 2.09 80
08:00 19 J/kg 2.6 K 0 % 0 % 0 % 0 m²/s² 0 0 3.11 80
09:00 6 J/kg 2.6 K 0 % 0 % 0 % 0 m²/s² 0 0 2.87 80
10:00 232 J/kg 3.0 K 0 % 0 % 0 % 0 m²/s² 0 0 4.59 3
11:00 254 J/kg 4.6 K 0 % 0 % 0 % 0 m²/s² 0 0 7.81 80
12:00 189 J/kg 6.6 K 0 % 0 % 0 % 0 m²/s² 0 0 10.98 80
13:00 156 J/kg 7.3 K 0 % 0 % 0 % 0 m²/s² 0 0 12.73 80
14:00 159 J/kg 7.2 K 0 % 0 % 0 % 0 m²/s² 0 0 11.31 80
15:00 159 J/kg 7.1 K 0 % 0 % 0 % 0 m²/s² 0 0 8.6 80
16:00 137 J/kg 7.7 K 0 % 0 % 0 % 0 m²/s² 0 0 12.44 3
17:00 140 J/kg 7.4 K 0 % 0 % 0 % 0 m²/s² 0 0 15.14 3
18:00 63 J/kg 8.2 K 0 % 0 % 0 % 0 m²/s² 0 0 14.92 3
19:00 53 J/kg 7.7 K 0 % 0 % 0 % 0 m²/s² 0 0 9.47 3
Temp Baro Wind Neerslag
  EWN Forecast EWN WRFDA DWD ICON FMI HIRLAM MET Norway GFS
 08:07     17:52    Daglengte: 9:45 Vandaag
22:00 12.4° 1005.1 hPa 5.9 m/s 0.8 mm 12.0° 1003.9 hPa 6.4 m/s 8.8 mm 12.3° 1005.4 hPa 3.3 m/s -1.0 mm 13.7° 1004.4 hPa 7.6 m/s 0.0 mm 12.1° 1005.2 hPa 4.8 m/s 1.3 mm 12.0° 1005.4 hPa 4.5 m/s
 08:09     17:51    Daglengte: 9:42 Morgen
01:00 10.6° 1004.7 hPa 13.1 m/s 8.9 mm 10.0° 1003.6 hPa 9.6 m/s 16.6 mm 10.1° 1005.3 hPa 7.9 m/s 8.9 mm 12.7° 1003.7 hPa 13.6 m/s 0.0 mm 10.1° 1006.6 hPa 13.9 m/s 9.1 mm 10.7° 1004.1 hPa 11.7 m/s
04:00 9.8° 1003.3 hPa 11.6 m/s 11.4 mm 8.6° 1001.2 hPa 8.1 m/s 32.4 mm 9.1° 1003.8 hPa 8.5 m/s 8.7 mm 10.8° 1003.0 hPa 11.8 m/s 0.0 mm 9.6° 1004.4 hPa 12.1 m/s 4.7 mm 9.2° 1002.1 hPa 12.7 m/s
07:00 10.0° 1001.7 hPa 12.7 m/s 7.3 mm 6.2° 1001.2 hPa 8.5 m/s 40.8 mm 9.0° 1002.3 hPa 7.9 m/s 0.8 mm 10.4° 1001.3 hPa 16.5 m/s 0.0 mm 10.2° 1002.2 hPa 13.3 m/s 1.2 mm 7.9° 1002.5 hPa 10.8 m/s
10:00 10.4° 1000.1 hPa 5.7 m/s 0.0 mm 8.1° 998.6 hPa 3.6 m/s 51.5 mm 10.5° 1000.9 hPa 4.5 m/s 0.1 mm 10.8° 1000.7 hPa 10.2 m/s 0.0 mm 10.0° 1000.1 hPa 4.9 m/s 0.0 mm 9.2° 1000.6 hPa 7.2 m/s
13:00 12.4° 996.8 hPa 4.1 m/s 0.0 mm 11.6° 994.3 hPa 4.7 m/s 53.4 mm 12.6° 997.4 hPa 3.8 m/s 0.0 mm 12.6° 996.7 hPa 6.3 m/s 0.0 mm 12.6° 996.9 hPa 4.2 m/s 0.0 mm 9.7° 997.0 hPa 2.4 m/s
16:00 9.7° 996.5 hPa 5.2 m/s 14.3 mm 7.6° 992.5 hPa 5.3 m/s 72.4 mm 9.7° 997.5 hPa 3.0 m/s 1.9 mm 9.4° 994.2 hPa 3.6 m/s 0.0 mm 9.7° 997.0 hPa 4.6 m/s 0.8 mm 7.9° 994.8 hPa 3.3 m/s
19:00 9.5° 999.8 hPa 7.8 m/s 16.9 mm 9.9° 996.1 hPa 8.2 m/s 92.8 mm 8.3° 999.9 hPa 4.0 m/s 5.1 mm 9.6° 999.2 hPa 9.4 m/s 0.0 mm 9.1° 1001.0 hPa 7.5 m/s 5.1 mm 9.3° 997.5 hPa 7.7 m/s
22:00 9.2° 1000.0 hPa 7.7 m/s 17.3 mm 9.4° 997.4 hPa 3.3 m/s 95.3 mm 8.4° 1000.1 hPa 6.1 m/s 1.1 mm 9.6° 997.8 hPa 6.4 m/s 0.0 mm 8.9° 1002.3 hPa 9.1 m/s 2.0 mm 10.1° 1000.9 hPa 8.2 m/s
 08:10     17:50    Daglengte: 9:40 Vrijdag 15 Nov
01:00 9.6° 1000.0 hPa 12.0 m/s 18.4 mm 10.0° 999.0 hPa 7.4 m/s 100.2 mm 8.3° 1000.5 hPa 8.9 m/s 2.4 mm 11.8° 997.6 hPa 12.5 m/s 0.0 mm 8.4° 1002.8 hPa 12.5 m/s 6.7 mm 9.6° 1002.0 hPa 7.1 m/s
04:00 9.8° 1000.0 hPa 11.5 m/s 18.5 mm 10.1° 999.3 hPa 9.7 m/s 105.8 mm 8.4° 1000.0 hPa 10.4 m/s 2.7 mm 11.9° 998.2 hPa 8.6 m/s 0.0 mm 8.6° 1003.3 hPa 12.9 m/s 5.1 mm 10.3° 1001.8 hPa 9.1 m/s
07:00 9.7° 1001.8 hPa 8.5 m/s 22.9 mm 9.9° 999.4 hPa 5.4 m/s 114.7 mm 9.0° 1002.7 hPa 6.6 m/s 6.4 mm 12.1° 996.2 hPa 9.1 m/s 0.0 mm 8.4° 1005.2 hPa 10.4 m/s 10.3 mm 10.7° 1001.3 hPa 10.6 m/s
10:00 9.7° 1004.9 hPa 7.9 m/s 22.3 mm 10.4° 1001.7 hPa 5.8 m/s 122.5 mm 8.4° 1006.1 hPa 5.1 m/s 6.7 mm 11.5° 1001.5 hPa 7.4 m/s 0.0 mm 8.5° 1006.2 hPa 12.0 m/s 7.4 mm 10.2° 1003.2 hPa 9.4 m/s
13:00 9.7° 1004.9 hPa 10.5 m/s 24.2 mm 9.5° 1003.1 hPa 9.6 m/s 129.4 mm 8.8° 1006.1 hPa 5.3 m/s 4.3 mm 12.0° 1000.3 hPa 12.5 m/s 0.0 mm 9.0° 1005.8 hPa 12.6 m/s 4.4 mm 10.8° 1005.1 hPa 7.2 m/s
16:00 9.4° 1004.8 hPa 8.7 m/s 28.0 mm 10.2° 1002.2 hPa 6.0 m/s 135.6 mm 8.6° 1005.9 hPa 6.2 m/s 4.0 mm 9.0° 1004.9 hPa 14.8 m/s 5.4 mm 9.7° 1005.7 hPa 5.5 m/s
19:00 8.9° 1006.3 hPa 7.1 m/s 24.3 mm 10.2° 1003.1 hPa 6.6 m/s 146.8 mm 8.4° 1007.6 hPa 6.1 m/s 4.5 mm 8.4° 1006.4 hPa 9.8 m/s 5.1 mm 9.7° 1007.7 hPa 3.8 m/s
22:00 8.5° 1008.4 hPa 6.8 m/s 25.7 mm 9.7° 1004.9 hPa 6.8 m/s 152.8 mm 8.1° 1009.6 hPa 6.1 m/s 3.8 mm 7.8° 1008.6 hPa 7.9 m/s 7.5 mm 9.6° 1010.0 hPa 2.9 m/s
 08:11     17:49    Daglengte: 9:38 Zaterdag 16 Nov
01:00 8.9° 1010.1 hPa 5.8 m/s 26.3 mm 10.8° 1006.7 hPa 6.2 m/s 163.8 mm 8.5° 1010.5 hPa 6.5 m/s 3.0 mm 7.7° 1010.8 hPa 3.7 m/s 5.5 mm 10.0° 1011.0 hPa 5.2 m/s
04:00 9.0° 1011.0 hPa 5.2 m/s 26.6 mm 10.7° 1007.9 hPa 5.0 m/s 169.2 mm 8.8° 1011.3 hPa 6.1 m/s 2.8 mm 8.4° 1011.6 hPa 5.1 m/s 2.4 mm 10.6° 1010.9 hPa 7.7 m/s
07:00 9.5° 1011.9 hPa 6.5 m/s 26.9 mm 10.4° 1008.0 hPa 6.8 m/s 171.6 mm 9.0° 1012.3 hPa 6.1 m/s 2.9 mm 9.1° 1012.2 hPa 7.6 m/s 4.3 mm 10.5° 1010.6 hPa 10.1 m/s
10:00 10.0° 1012.8 hPa 6.0 m/s 53.2 mm 10.2° 1010.5 hPa 5.4 m/s 179.2 mm 9.6° 1013.5 hPa 5.4 m/s 2.3 mm 9.8° 1012.8 hPa 9.6 m/s 10.8° 1012.2 hPa 9.8 m/s
13:00 10.7° 1013.3 hPa 8.9 m/s 40.1 mm 11.1° 1011.5 hPa 7.0 m/s 191.4 mm 10.4° 1013.6 hPa 6.9 m/s 2.1 mm 10.5° 1013.3 hPa 11.7 m/s 11.3° 1012.0 hPa 10.1 m/s
16:00 10.4° 1013.1 hPa 8.9 m/s 67.4 mm 10.1° 1010.9 hPa 6.5 m/s 199.2 mm 10.4° 1013.1 hPa 7.3 m/s 1.5 mm 10.4° 1013.6 hPa 10.7 m/s 11.6° 1011.4 hPa 10.9 m/s
19:00 10.4° 1013.3 hPa 7.0 m/s 68.4 mm 10.4° 1010.9 hPa 2.6 m/s 203.8 mm 10.5° 1013.1 hPa 4.7 m/s 0.7 mm 10.4° 1013.9 hPa 9.7 m/s 11.5° 1012.8 hPa 10.8 m/s
22:00 10.0° 1013.0 hPa 6.8 m/s 90.0 mm 9.9° 1013.0 hPa 6.6 m/s 11.0° 1013.5 hPa 9.2 m/s 90.0 mm
 08:13     17:48    Daglengte: 9:35 Zondag 17 Nov
01:00 9.7° 1012.6 hPa 5.0 m/s 90.8 mm 9.6° 1012.5 hPa 5.0 m/s 10.4° 1013.2 hPa 5.5 m/s 90.8 mm
04:00 9.3° 1011.0 hPa 4.4 m/s 91.1 mm 9.3° 1011.0 hPa 4.5 m/s 8.5° 1011.3 hPa 3.3 m/s 91.1 mm
07:00 9.1° 1009.5 hPa 3.9 m/s 91.1 mm 9.1° 1009.4 hPa 4.0 m/s 8.6° 1010.1 hPa 2.9 m/s 91.1 mm
10:00 10.5° 1009.1 hPa 7.7 m/s 93.0 mm 10.8° 1009.0 hPa 8.1 m/s 7.4° 1010.5 hPa 3.8 m/s 93.0 mm
13:00 12.1° 1008.7 hPa 11.3 m/s 96.1 mm 12.4° 1008.6 hPa 12.1 m/s 8.4° 1010.0 hPa 2.5 m/s 96.1 mm
16:00 11.8° 1009.4 hPa 9.4 m/s 99.1 mm 11.8° 1009.4 hPa 9.8 m/s 12.3° 1008.8 hPa 5.4 m/s 99.1 mm
19:00 11.1° 1010.2 hPa 7.2 m/s 100.8 mm 11.2° 1010.2 hPa 7.5 m/s 9.8° 1010.2 hPa 3.9 m/s 100.8 mm
22:00 10.8° 1011.6 hPa 6.3 m/s 103.0 mm 10.8° 1011.5 hPa 6.9 m/s 9.8° 1012.3 hPa 0.2 m/s 103.0 mm
 08:14     17:48    Daglengte: 9:34 Maandag 18 Nov
01:00 10.6° 1012.8 hPa 6.2 m/s 105.0 mm 10.5° 1012.8 hPa 6.3 m/s 11.4° 1013.4 hPa 5.0 m/s 105.0 mm
04:00 10.3° 1012.8 hPa 8.0 m/s 108.0 mm 10.2° 1012.7 hPa 8.1 m/s 11.4° 1013.4 hPa 6.5 m/s 108.0 mm
07:00 10.1° 1012.7 hPa 9.8 m/s 110.8 mm 10.0° 1012.6 hPa 9.9 m/s 10.9° 1014.1 hPa 8.9 m/s 110.8 mm
10:00 10.9° 1013.1 hPa 9.4 m/s 113.3 mm 10.8° 1012.8 hPa 9.6 m/s 11.1° 1016.1 hPa 7.7 m/s 113.3 mm
13:00 11.7° 1013.2 hPa 9.2 m/s 115.2 mm 11.7° 1013.0 hPa 9.3 m/s 11.2° 1015.9 hPa 7.9 m/s 115.2 mm
16:00 11.6° 1012.9 hPa 8.2 m/s 115.4 mm 11.6° 1012.8 hPa 8.5 m/s 12.4° 1014.5 hPa 4.5 m/s 115.4 mm
19:00 11.3° 1012.8 hPa 7.3 m/s 115.4 mm 11.4° 1012.6 hPa 7.7 m/s 10.3° 1014.5 hPa 3.0 m/s 115.4 mm
22:00 9.4° 1011.8 hPa 5.4 m/s 115.4 mm 9.4° 1011.7 hPa 5.5 m/s 9.3° 1012.9 hPa 3.9 m/s 115.4 mm
 08:15     17:47    Daglengte: 9:32 Dinsdag 19 Nov
01:00 7.7° 1010.8 hPa 3.4 m/s 115.5 mm 7.4° 1010.7 hPa 3.4 m/s 10.7° 1011.4 hPa 3.9 m/s 115.5 mm
04:00 9.3° 1008.7 hPa 4.9 m/s 115.6 mm 9.2° 1008.6 hPa 5.0 m/s 10.8° 1010.3 hPa 3.6 m/s 115.6 mm
07:00 10.9° 1006.8 hPa 6.4 m/s 115.9 mm 10.9° 1006.5 hPa 6.7 m/s 11.0° 1010.2 hPa 3.2 m/s 115.9 mm
10:00 11.0° 1007.4 hPa 6.2 m/s 116.4 mm 10.9° 1007.1 hPa 6.6 m/s 11.6° 1010.5 hPa 2.6 m/s 116.4 mm
13:00 11.1° 1007.8 hPa 6.0 m/s 116.5 mm 10.9° 1007.7 hPa 6.4 m/s 13.7° 1009.1 hPa 1.1 m/s 116.5 mm
16:00 11.0° 1007.3 hPa 5.4 m/s 116.5 mm 10.8° 1007.2 hPa 5.8 m/s 13.6° 1007.5 hPa 1.7 m/s 116.5 mm
19:00 10.7° 1006.8 hPa 5.0 m/s 116.5 mm 10.6° 1006.8 hPa 5.1 m/s 12.1° 1007.2 hPa 4.3 m/s 116.5 mm
22:00 11.0° 1005.3 hPa 4.7 m/s 116.5 mm 10.9° 1005.3 hPa 4.8 m/s 11.9° 1005.8 hPa 3.7 m/s 116.5 mm
 08:16     17:46    Daglengte: 9:30 Woensdag 20 Nov
01:00 11.5° 1003.8 hPa 4.5 m/s 116.5 mm 11.3° 1003.8 hPa 4.5 m/s 13.4° 1003.7 hPa 4.7 m/s 116.5 mm
04:00 11.1° 1002.4 hPa 5.3 m/s 116.5 mm 10.9° 1002.6 hPa 5.2 m/s 14.4° 1000.4 hPa 7.5 m/s 116.5 mm
07:00 10.8° 1001.0 hPa 5.9 m/s 116.7 mm 10.4° 1001.4 hPa 5.8 m/s 14.6° 996.8 hPa 6.7 m/s 116.7 mm
10:00 12.0° 1000.7 hPa 7.2 m/s 116.7 mm 11.5° 1001.4 hPa 7.2 m/s 17.1° 992.7 hPa 7.7 m/s 116.7 mm
13:00 13.0° 1000.8 hPa 8.2 m/s 116.7 mm 12.6° 1001.4 hPa 8.5 m/s 17.6° 994.5 hPa 4.6 m/s 116.7 mm
16:00 12.9° 1001.3 hPa 7.4 m/s 116.8 mm 12.6° 1001.8 hPa 8.0 m/s 15.5° 996.1 hPa 1.2 m/s 116.8 mm
19:00 12.9° 1001.8 hPa 6.9 m/s 116.8 mm 12.7° 1002.1 hPa 7.4 m/s 14.8° 998.0 hPa 1.8 m/s 116.8 mm
 08:18     17:45    Daglengte: 9:27 Donderdag 21 Nov
01:00 11.7° 1003.2 hPa 6.5 m/s 117.0 mm 11.5° 1003.5 hPa 6.9 m/s 13.6° 1000.1 hPa 1.8 m/s 117.0 mm
07:00 11.4° 1003.5 hPa 7.6 m/s 117.1 mm 11.2° 1003.9 hPa 8.0 m/s 13.6° 999.6 hPa 2.8 m/s 117.1 mm
13:00 14.1° 1005.3 hPa 6.3 m/s 117.3 mm 14.1° 1005.6 hPa 6.6 m/s 13.7° 1002.3 hPa 3.0 m/s 117.3 mm
19:00 11.7° 1004.3 hPa 3.9 m/s 117.9 mm 11.6° 1004.4 hPa 4.0 m/s 13.4° 1003.4 hPa 2.6 m/s 117.9 mm
 08:19     17:44    Daglengte: 9:25 Vrijdag 22 Nov
01:00 11.7° 1001.9 hPa 6.0 m/s 119.9 mm 11.6° 1001.6 hPa 6.3 m/s 12.4° 1004.9 hPa 2.4 m/s 119.9 mm
07:00 12.8° 996.8 hPa 7.0 m/s 120.6 mm 12.8° 996.0 hPa 7.5 m/s 12.4° 1005.3 hPa 1.9 m/s 120.6 mm
13:00 14.7° 996.2 hPa 6.4 m/s 122.5 mm 15.0° 995.3 hPa 6.8 m/s 11.2° 1006.6 hPa 1.5 m/s 122.5 mm
19:00 15.9° 992.0 hPa 6.8 m/s 123.3 mm 16.3° 990.6 hPa 7.3 m/s 11.6° 1007.8 hPa 1.9 m/s 123.3 mm
 08:20     17:44    Daglengte: 9:24 Zaterdag 23 Nov
01:00 15.0° 992.7 hPa 4.0 m/s 123.5 mm 15.3° 991.2 hPa 4.1 m/s 11.3° 1009.6 hPa 3.0 m/s 123.5 mm
07:00 11.1° 1010.6 hPa 3.1 m/s 124.5 mm 11.1° 1010.6 hPa 3.1 m/s 124.5 mm
13:00 11.2° 1012.3 hPa 5.3 m/s 127.1 mm 11.2° 1012.3 hPa 5.3 m/s 127.1 mm
19:00 9.7° 1005.4 hPa 2.5 m/s 0.8 mm
 08:21     17:43    Daglengte: 9:22 Zondag 24 Nov
01:00 9.3° 1006.5 hPa 4.0 m/s 0.7 mm
07:00 9.2° 1006.5 hPa 4.5 m/s 0.5 mm
13:00 12.7° 1007.8 hPa 3.9 m/s 0.7 mm
19:00 10.4° 1008.9 hPa 3.2 m/s 0.8 mm
 08:23     17:43    Daglengte: 9:20 Maandag 25 Nov
01:00 9.6° 1010.4 hPa 4.4 m/s 0.8 mm
07:00 9.2° 1011.0 hPa 4.5 m/s 0.4 mm
13:00 13.0° 1011.0 hPa 4.1 m/s 0.6 mm
19:00 10.9° 1010.1 hPa 3.4 m/s 0.8 mm
 08:24     17:42    Daglengte: 9:18 Dinsdag 26 Nov
01:00 10.5° 1009.7 hPa 4.5 m/s 0.6 mm
07:00 10.6° 1008.7 hPa 3.8 m/s 1.5 mm
13:00 13.3° 1009.4 hPa 3.3 m/s 1.9 mm
19:00 11.1° 1010.0 hPa 2.2 m/s 1.2 mm
 08:25     17:42    Daglengte: 9:17 Woensdag 27 Nov
01:00 10.5° 1010.5 hPa 3.3 m/s 0.5 mm
07:00 10.5° 1009.6 hPa 3.7 m/s 0.7 mm
13:00 13.4° 1009.6 hPa 3.4 m/s 0.9 mm
19:00 11.8° 1010.0 hPa 2.0 m/s 1.1 mm
 08:26     17:41    Daglengte: 9:15 Donderdag 28 Nov
01:00 11.1° 1011.2 hPa 3.3 m/s 0.9 mm
07:00 11.0° 1011.1 hPa 3.6 m/s 0.8 mm
13:00 13.9° 1011.1 hPa 4.0 m/s 1.3 mm
19:00 12.1° 1011.0 hPa 2.7 m/s 1.6 mm
FMI Hirlam - 7.5 km EWN WRFDA - 12 km DWD ICON - 7 km GFS - 25 km Basiskaart






























































Updatetijd (Europe/Brussels) Resolutie Lengte Stap
FMI Hirlam 18:00, 00:00, 06:00, 12:00 7.5 km 49h 1h
EWN WRFDA 14:45, 20:45, 02:45, 08:45 12 km 73h 1h
DWD ICON 16:45, 22:45, 04:45, 10:45 7 km 75h 1h
GFS 19:30, 01:30, 07:30, 13:30 25 km 237h 3h
30+ mm
25-30 mm
20-25 mm
15-20 mm
10-15 mm
6-10 mm
4-6 mm
2-4 mm
1-2 mm
0.5-1 mm
0.2-0.5 mm
0.1-0.2 mm
30+ mm
25-30 mm
20-25 mm
15-20 mm
10-15 mm
6-10 mm
4-6 mm
2-4 mm
1-2 mm
0.5-1 mm
0.2-0.5 mm
0.1-0.2 mm
Sneeuwval
Natte sneeuw
Hagel
Vorst
30+ mm
25-30 mm
20-25 mm
15-20 mm
10-15 mm
6-10 mm
4-6 mm
2-4 mm
1-2 mm
0.5-1 mm
0.2-0.5 mm
0.1-0.2 mm
Sneeuwval
Natte sneeuw
Hagel
Vorst
Onweer
50 mm
40 mm
30 mm
26 mm
22 mm
18 mm
14 mm
10 mm
9 mm
8 mm
7 mm
6 mm
5 mm
4.5 mm
4 mm
3.5 mm
3 mm
2.5 mm
2 mm
1.5 mm
1 mm
0.8 mm
0.6 mm
0.4 mm
0.2 mm
0.05 mm
35°
30°
25°
20°
15°
10°
-5°
-10°
-15°
-20°
-25°
-30°
-35°
33> m/s
29 m/s
25 m/s
21 m/s
17 m/s
14 m/s
11 m/s
8 m/s
5 m/s
3 m/s
0 m/s
2600 J/kg
2400 J/kg
2200 J/kg
2000 J/kg
1800 J/kg
1600 J/kg
1400 J/kg
1200 J/kg
1000 J/kg
800 J/kg
600 J/kg
400 J/kg
200 J/kg
70 dBZ
65 dBZ
60 dBZ
55 dBZ
50 dBZ
45 dBZ
40 dBZ
35 dBZ
30 dBZ
25 dBZ
20 dBZ
15 dBZ
10 dBZ
5 dBZ
-1 K
-2 K
-3 K
-4 K
-5 K
-6 K
-7 K
-8 K
-9 K
950 m²/s²
900 m²/s²
850 m²/s²
800 m²/s²
750 m²/s²
700 m²/s²
650 m²/s²
600 m²/s²
550 m²/s²
500 m²/s²
450 m²/s²
400 m²/s²
350 m²/s²
300 m²/s²
250 m²/s²